This demonstration page uses our WeatherBlox Daily Observations layout. Learn more.

Left ArrowRight Arrow

39.51506, -84.39828

Hourly Observations for February 26, 2017

Temp ( °F °C ) Dew Point ( °F °C ) Humidity (%) Winds ( mph kmh ) Pressure ( in mb ) Visibility ( mi km ) Precip ( " mm )
12:15 am 00:15 Clear 29 -1.5 18 -8 62 62 undefined N/A 30.12 1020 10 16 0.00 0.00
12:35 am 00:35 Clear 29 -1.5 17 -8.6 59 59 undefined N/A 30.12 1020 10 16 0.00 0.00
12:55 am 00:55 Clear 29 -1.5 17 -8.5 59 59 undefined N/A 30.12 1020 10 16 0.00 0.00
1:15 am 01:15 Clear 29 -1.5 17 -8.1 61 61 undefined N/A 30.12 1020 10 16 0.00 0.00
1:35 am 01:35 Clear 29 -1.7 21 -6.2 72 72 undefined N/A 30.12 1020 10 16 0.00 0.00
1:55 am 01:55 Mostly Cloudy 29 -1.5 22 -5.7 73 73 undefined N/A 30.15 1021 10 16 0.00 0.00
2:15 am 02:15 Mostly Cloudy 29 -1.5 18 -7.7 63 63 undefined N/A 30.15 1021 10 16 0.00 0.00
2:35 am 02:35 Partly Cloudy 29 -1.5 18 -7.7 63 63 undefined N/A 30.15 1021 10 16 0.00 0.00
2:55 am 02:55 Mostly Cloudy 29 -1.5 19 -7.4 65 65 undefined N/A 30.15 1021 10 16 0.00 0.00
3:15 am 03:15 Mostly Cloudy 29 -1.5 18 -7.7 63 63 undefined N/A 30.15 1021 10 16 0.00 0.00
3:35 am 03:35 Partly Cloudy 29 -1.5 18 -8 62 62 undefined N/A 30.15 1021 10 16 0.00 0.00
3:55 am 03:55 Partly Cloudy 29 -1.5 18 -8 62 62 undefined N/A 30.15 1021 10 16 0.00 0.00
4:15 am 04:15 Partly Cloudy 28 -2.4 17 -8.4 64 64 undefined N/A 30.15 1021 10 16 0.00 0.00
4:35 am 04:35 Partly Cloudy 28 -2.5 16 -8.7 63 63 undefined N/A 30.18 1022 10 16 0.00 0.00
4:55 am 04:55 Partly Cloudy 27 -2.8 16 -9 63 63 undefined N/A 30.18 1022 10 16 0.00 0.00
5:15 am 05:15 Clear 27 -2.8 16 -9 63 63 undefined N/A 30.18 1022 10 16 0.00 0.00
5:35 am 05:35 Clear 25 -4.1 15 -9.6 66 66 undefined N/A 30.18 1022 10 16 0.00 0.00
5:55 am 05:55 Clear 24 -4.2 15 -9.3 68 68 undefined N/A 30.21 1023 10 16 0.00 0.00
6:15 am 06:15 Clear 24 -4.2 16 -8.8 71 71 undefined N/A 30.21 1023 10 16 0.00 0.00
6:35 am 06:35 Clear 23 -4.9 17 -8.4 77 77 undefined N/A 30.21 1023 10 16 0.00 0.00
6:55 am 06:55 Clear 23 -5.1 16 -8.7 76 76 undefined N/A 30.21 1023 10 16 0.00 0.00
7:15 am 07:15 Sunny 23 -5 17 -8.3 78 78 undefined N/A 30.21 1023 10 16 0.00 0.00
7:35 am 07:35 Sunny 22 -5.4 16 -9.1 75 75 undefined N/A 30.27 1025 10 16 0.00 0.00
7:55 am 07:55 Sunny 27 -3 19 -7.3 73 73 undefined N/A 30.24 1024 10 16 0.00 0.00
8:15 am 08:15 Sunny 29 -1.5 20 -6.6 69 69 undefined N/A 30.24 1024 10 16 0.00 0.00
8:35 am 08:35 Sunny 29 -1.5 18 -7.6 64 64 undefined N/A 30.27 1025 10 16 0.00 0.00
8:55 am 08:55 Sunny 29 -1.5 17 -8.3 60 60 undefined N/A 30.27 1025 10 16 0.00 0.00
9:15 am 09:15 Sunny 29 -1.5 16 -9 57 57 undefined N/A 30.27 1025 10 16 0.00 0.00
9:35 am 09:35 Sunny 30 -0.9 16 -9.1 54 54 undefined N/A 30.24 1024 10 16 0.00 0.00
9:55 am 09:55 Sunny 32 -0.1 15 -9.6 49 49 undefined N/A 30.27 1025 10 16 0.00 0.00
10:15 am 10:15 Sunny 34 1.2 16 -8.9 47 47 undefined N/A 30.27 1025 10 16 0.00 0.00
10:35 am 10:35 Sunny 34 1.2 13 -10.4 42 42 undefined N/A 30.27 1025 10 16 0.00 0.00
10:55 am 10:55 Sunny 34 1.2 11 -11.6 38 38 undefined N/A 30.27 1025 10 16 0.00 0.00
11:15 am 11:15 Sunny 35 1.5 10 -12.1 36 36 undefined N/A 30.27 1025 10 16 0.00 0.00
11:35 am 11:35 Sunny 37 2.6 10 -12.2 33 33 undefined N/A 30.27 1025 10 16 0.00 0.00
11:55 am 11:55 Sunny 37 2.7 9 -12.7 31 31 undefined N/A 30.27 1025 10 16 0.00 0.00
12:15 pm 12:15 Sunny 39 4 8 -13.2 28 28 undefined N/A 30.24 1024 10 16 0.00 0.00
12:35 pm 12:35 Sunny 39 4 10 -12.5 29 29 undefined N/A 30.24 1024 10 16 0.00 0.00
12:55 pm 12:55 Sunny 41 4.9 8 -13.1 26 26 undefined N/A 30.24 1024 10 16 0.00 0.00
1:15 pm 13:15 Sunny 42 5.5 6 -14.4 22 22 undefined N/A 30.18 1022 10 16 0.00 0.00
1:35 pm 13:35 Sunny 43 5.9 5 -15 21 21 undefined N/A 30.18 1022 10 16 0.00 0.00
1:55 pm 13:55 Sunny 44 6.5 2 -16.5 18 18 undefined N/A 30.18 1022 10 16 0.00 0.00
2:15 pm 14:15 Sunny 45 7.4 4 -15.7 18 18 undefined N/A 30.18 1022 10 16 0.00 0.00
2:35 pm 14:35 Sunny 47 8.2 4 -15.6 17 17 undefined N/A 30.18 1022 10 16 0.00 0.00
2:55 pm 14:55 Sunny 47 8.2 3 -16 16 16 undefined N/A 30.18 1022 10 16 0.00 0.00
3:15 pm 15:15 Sunny 49 9.4 6 -14.6 17 17 undefined N/A 30.15 1021 10 16 0.00 0.00
3:35 pm 15:35 Sunny 49 9.6 4 -15.4 16 16 undefined N/A 30.15 1021 10 16 0.00 0.00
3:55 pm 15:55 Sunny 49 9.6 3 -16 15 15 undefined N/A 30.15 1021 10 16 0.00 0.00
4:15 pm 16:15 Sunny 49 9.6 3 -16 15 15 undefined N/A 30.15 1021 10 16 0.00 0.00
4:35 pm 16:35 Sunny 49 9.6 4 -15.6 15 15 undefined N/A 30.15 1021 10 16 0.00 0.00
4:55 pm 16:55 Sunny 49 9.6 4 -15.5 15 15 undefined N/A 30.15 1021 10 16 0.00 0.00
5:15 pm 17:15 Partly Cloudy 49 9.6 5 -15.1 16 16 undefined N/A 30.15 1021 10 16 0.00 0.00
5:35 pm 17:35 Mostly Cloudy 49 9.6 4 -15.3 16 16 undefined N/A 30.15 1021 10 16 0.00 0.00
5:55 pm 17:55 Cloudy 49 9.4 5 -15.1 16 16 undefined N/A 30.15 1021 10 16 0.00 0.00
6:15 pm 18:15 Cloudy 47 8.2 7 -13.9 19 19 undefined N/A 30.18 1022 10 16 0.00 0.00
6:35 pm 18:35 Cloudy 47 8.2 4 -15.3 17 17 undefined N/A 30.18 1022 10 16 0.00 0.00
6:55 pm 18:55 Cloudy 47 8.2 8 -13.6 20 20 undefined N/A 30.18 1022 10 16 0.00 0.00
7:15 pm 19:15 Cloudy 47 8.2 5 -15 18 18 undefined N/A 30.18 1022 10 16 0.00 0.00
7:35 pm 19:35 Cloudy 46 7.5 5 -15 19 19 undefined N/A 30.18 1022 10 16 0.00 0.00
7:55 pm 19:55 Partly Cloudy 44 6.6 6 -14.5 21 21 undefined N/A 30.18 1022 10 16 0.00 0.00
8:15 pm 20:15 Mostly Cloudy 44 6.8 5 -14.8 20 20 undefined N/A 30.18 1022 10 16 0.00 0.00
8:35 pm 20:35 Cloudy 42 5.6 9 -12.9 25 25 undefined N/A 30.18 1022 10 16 0.00 0.00
8:55 pm 20:55 Partly Cloudy 43 6.1 7 -13.8 23 23 undefined N/A 30.18 1022 10 16 0.00 0.00
9:15 pm 21:15 Partly Cloudy 42 5.6 8 -13.1 25 25 undefined N/A 30.18 1022 10 16 0.00 0.00
9:35 pm 21:35 Partly Cloudy 42 5.5 9 -12.6 26 26 undefined N/A 30.18 1022 10 16 0.00 0.00
9:55 pm 21:55 Clear 40 4.7 14 -9.8 34 34 undefined N/A 30.21 1023 10 16 0.00 0.00
10:15 pm 22:15 Clear 39 4.1 17 -8.4 40 40 undefined N/A 30.21 1023 10 16 0.00 0.00
10:35 pm 22:35 Partly Cloudy 37 2.6 21 -6 53 53 undefined N/A 30.21 1023 10 16 0.00 0.00
10:55 pm 22:55 Mostly Cloudy 37 2.6 23 -4.9 58 58 undefined N/A 30.21 1023 10 16 0.00 0.00
11:15 pm 23:15 Cloudy 39 3.9 25 -4 57 57 undefined N/A 30.21 1023 10 16 0.00 0.00
11:35 pm 23:35 Cloudy 39 4 24 -4.7 53 53 undefined N/A 30.21 1023 10 16 0.00 0.00
11:55 pm 23:55 Cloudy 37 2.7 26 -3.4 65 65 undefined N/A 30.21 1023 10 16 0.00 0.00

Powered by AerisWeather